Location: Maiden
(35.5760°N, 81.2120°W)
Time: 01:19:46
(UTC-04:00)

Iridium 4 Rocket - Pass Details

Date: 14 June 2018
Orbit: 585 x 904 km, 86.9° (Epoch: 20 August)

Event Time Altitude Azimuth Distance (km) Brightness Sun altitude
Exits shadow 22:26:32 23° 168° (SSE) 1,799 4.9 -17.5°
Maximum altitude 22:30:15 71° 89° (E) 935 3.7 -18.0°
Drops below altitude 10° 22:35:54 10° 6° (N) 2,484 6.7 -18.8°
Sets 22:38:15 0° 5° (N) 3,384 7.5 -19.1°
